DW4988 Weather Reports


time (UTC)temp
C
wind
direction
speed
KPH
gust
KPH
rain 1hr
cm
rain 24hr
cm
rain mn
cm
humidity
%
barometer
mb
20260505121546 12 225 3.2 16.1 0.00 0.00 0.00 68 1008.9
20260505120042 12 192 4.8 11.3 0.00 0.00 0.00 70 1009.0
20260505114542 12 184 1.6 14.5 0.00 0.00 0.00 69 1009.0
20260505113048 11 211 4.8 12.9 0.00 0.00 0.00 68 1009.1
20260505111541 11 200 3.2 11.3 0.00 0.00 0.00 69 1009.0
20260505101559 12 217 3.2 11.3 0.00 0.00 0.00 66 1009.2
20260505100057 13 0 1.6 9.7 0.00 0.00 0.00 63 1009.3
20260505094545 13 204 6.4 12.9 0.00 0.00 0.00 61 1009.2
20260505093053 12 217 3.2 11.3 0.00 0.00 0.00 61 1009.3
20260505091545 13 213 3.2 11.3 0.00 0.00 0.00 61 1009.2
20260505090045 13 195 4.8 11.3 0.00 0.00 0.00 61 1009.3
20260505084543 13 194 3.2 12.9 0.00 0.00 0.00 62 1009.3
20260505083045 13 217 3.2 11.3 0.00 0.00 0.00 64 1009.4
20260505081558 13 177 4.8 14.5 0.00 0.00 0.00 60 1009.5
20260505080053 13 183 3.2 14.5 0.00 0.00 0.00 60 1009.6
20260505074543 13 193 6.4 19.3 0.00 0.00 0.00 60 1009.4
20260505073041 13 190 8.0 27.4 0.00 0.00 0.00 56 1009.4
20260505071550 13 169 6.4 20.9 0.00 0.00 0.00 54 1009.3
20260505070038 13 173 6.4 20.9 0.00 0.00 0.00 54 1009.2
20260505064542 13 140 8.0 25.7 0.00 0.00 0.00 54 1009.2
20260505063048 13 191 8.0 27.4 0.00 0.00 0.00 56 1009.3
20260505061546 13 225 8.0 20.9 0.00 0.00 0.00 57 1009.3
20260505060045 13 180 6.4 25.7 0.00 0.00 0.00 57 1009.2
20260505054545 13 182 8.0 35.4 0.00 0.00 0.00 56 1009.3
20260505053048 14 112 6.4 33.8 0.00 0.00 0.00 57 1009.2
20260505051545 14 73 12.9 35.4 0.00 0.00 0.00 56 1009.2
20260505041546 16 144 9.7 24.1 0.00 0.00 0.00 42 1008.3
20260505040045 16 195 4.8 11.3 0.00 0.00 0.00 42 1008.0
20260505034547 16 205 6.4 17.7 0.00 0.00 0.00 44 1007.7
20260505033041 16 204 6.4 16.1 0.00 0.00 0.00 43 1007.7
20260505031544 17 190 6.4 14.5 0.00 0.00 0.00 40 1007.7
20260505030045 17 232 3.2 19.3 0.00 0.00 0.00 40 1007.5
20260505024542 17 176 6.4 19.3 0.00 0.00 0.00 39 1007.4
20260505023049 17 247 3.2 24.1 0.00 0.00 0.00 38 1007.2
20260505021544 18 171 8.0 22.5 0.00 0.00 0.00 37 1007.1
20260505020043 18 174 9.7 25.7 0.00 0.00 0.00 37 1007.0
20260505014539 18 209 1.6 9.7 0.00 0.00 0.00 36 1006.9
20260505013046 20 154 0.0 9.7 0.00 0.00 0.00 37 1007.0
20260505011544 20 70 3.2 9.7 0.00 0.00 0.00 32 1007.1
20260505010104 20 5 3.2 12.9 0.00 0.00 0.00 32 1007.2
20260505004543 20 63 12.9 24.1 0.00 0.00 0.00 31 1007.4
20260505003044 20 69 9.7 22.5 0.00 0.00 0.00 31 1007.5
20260505001546 20 70 12.9 25.7 0.00 0.00 0.00 32 1007.6
20260505000046 20 55 14.5 33.8 0.00 0.00 0.00 33 1007.8
20260504234545 21 51 14.5 25.7 0.00 0.00 0.00 31 1007.9
20260504233042 21 61 16.1 25.7 0.00 0.00 0.00 30 1008.2
20260504231546 22 47 9.7 19.3 0.00 0.00 0.00 28 1008.0
20260504230046 22 71 14.5 22.5 0.00 0.00 0.00 29 1008.0
20260504224537 21 76 11.3 24.1 0.00 0.00 0.00 31 1008.1
20260504223058 22 113 19.3 32.2 0.00 0.00 0.00 28 1008.1
20260504221558 21 217 4.8 14.5 0.00 0.00 0.00 27 1008.1
20260504220044 21 236 9.7 19.3 0.00 0.00 0.00 27 1008.0
20260504214540 21 233 8.0 14.5 0.00 0.00 0.00 27 1008.2
20260504213058 22 223 8.0 19.3 0.00 0.00 0.00 24 1008.1
20260504211549 23 240 6.4 14.5 0.00 0.00 0.00 22 1008.1
20260504210043 23 236 3.2 12.9 0.00 0.00 0.00 23 1008.3
20260504204542 23 222 4.8 12.9 0.00 0.00 0.00 26 1008.4
20260504203048 23 257 1.6 9.7 0.00 0.00 0.00 26 1008.4
20260504201540 23 263 4.8 16.1 0.00 0.00 0.00 26 1008.6
20260504200046 23 253 3.2 14.5 0.00 0.00 0.00 25 1008.6
20260504194551 24 0 0.0 14.5 0.00 0.00 0.00 25 1008.7
20260504193043 26 315 9.7 16.1 0.00 0.00 0.00 22 1008.8
20260504191543 26 0 3.2 14.5 0.00 0.00 0.00 22 1008.9
20260504190042 26 183 3.2 14.5 0.00 0.00 0.00 23 1009.2
20260504184537 25 76 6.4 14.5 0.00 0.00 0.00 25 1009.4
20260504183045 25 146 3.2 17.7 0.00 0.00 0.00 24 1009.4
20260504181541 25 132 8.0 19.3 0.00 0.00 0.00 23 1009.6
20260504180048 25 211 3.2 19.3 0.00 0.00 0.00 25 1009.8
20260504174544 25 215 4.8 20.9 0.00 0.00 0.00 26 1009.9
20260504173046 24 121 4.8 20.9 0.00 0.00 0.00 27 1010.0
20260504171546 23 194 11.3 29.0 0.00 0.00 0.00 28 1010.1
20260504150111 18 193 4.8 17.7 0.00 0.00 0.00 39 1010.7